Other Surface Observations
Issued by NWS

Home | Current Version | Previous Version | Text Only | Print | Product List | Glossary On
Versions: 1 2 3 4 5 6 7 8 9 10 11 12 13 14 15 16 17 18 19 20 21 22 23 24 25 26 27 28 29 30 31 32 33 34 35 36 37 38 39 40 41 42 43 44 45 46 47 48 49 50
000
SXUS52 KTAE 191018
OSOTAE
OSOTAE
North Florida/South Alabama/Southwest Georgia Weather Roundup
National Weather Service Tallahassee Florida
600 AM EDT FRI SEP 19 2014

Note: "fair" indicates few or no clouds below 12,000 feet with no
significant weather and/or obstructions to visibility.

!FLZ017-115-028-034-025-191100
...North Florida...

CITY           SKY/WX    TMP DP  RH WIND       PRES   REMARKS
TALLAHASSEE    CLOUDY    73  69  87 CALM      29.94R
APALACHICOLA   LGT RAIN  76  71  85 N5        29.91S
PERRY          CLOUDY    70  70 100 CALM      29.93R
CROSS CITY       N/A     73  70  90 NE3       29.93R
HOMERVILLE     FOG       72  72 100 CALM      29.98R VSB 1/2
JACKSONVILLE   MOCLDY    71  71 100 N3        29.95R
$$

!FLZ112-006-005-002-011-191100
...Florida Panhandle...

CITY           SKY/WX    TMP DP  RH WIND       PRES   REMARKS
MARIANNA       CLOUDY    70  68  93 NE5       29.95R
BONIFAY        FAIR      68  67  96 N5        29.96R
PANAMA CITY NW FAIR      74  69  85 NE3       29.92R
TYNDALL AFB    CLOUDY    74  72  93 NE5       29.92S
TYND DRONE APT PTSUNNY   74  72  95 MISG      29.91S
DE FUNIAK SPR  FAIR      72  65  77 NE8       29.95R
EGLIN AFB      LGT RAIN  77  68  73 NE7       29.92R
DESTIN         LGT RAIN  79  72  79 NE6       29.92R
HURLBURT       CLOUDY    76  70  83 N8        29.90S
CRESTVIEW      CLOUDY    71  66  84 E3        29.94S
PENSACOLA      CLOUDY    72  70  93 N5        29.91S
$$

!ALZ063-066-191100
...South Alabama...

CITY           SKY/WX    TMP DP  RH WIND       PRES   REMARKS
DOTHAN         MOCLDY    68  66  93 SE3       30.00R
OZARK CAIRNS   MOCLDY    68  65  89 E6        29.96R
FT RUCKER HELI MOCLDY    68  65  90 NE5       29.95R
RUCKER HELI 3  FAIR      70  65  84 E5        29.98R
RUCKER HELI 2  FAIR      71  65  81 NE6       29.96R
FLORALA APT    CLOUDY    71  63  75 E5        29.96S
ANDALUSIA      CLOUDY    71  64  78 CALM      29.95R
TROY           MOCLDY    65  63  93 S3        29.97R
EUFALA         FAIR      71  68  90 E5        29.97R
MOBILE         LGT RAIN  71  70  96 NE3       29.93R
$$

!GAZ120>161-191100
...Southwest and South Central Georgia...

CITY           SKY/WX    TMP DP  RH WIND       PRES   REMARKS
THOMASVILLE    FAIR      72  72 100 NE3       29.97R
BAINBRIDGE     CLOUDY    73  72  94 NE6       29.95S
MOODY AFB      MOCLDY    70  68  95 N2        29.96R
VALDOSTA       CLOUDY    71  69  93 NE3       29.96R
MOULTRIE       MOCLDY    72  70  94 NE3       29.97S
BLAKELY        MOCLDY    70  70 100 CALM        N/A
ALBANY         MOCLDY    71  68  90 CALM      29.99R
TIFTON         FAIR      70  68  95 NE3       29.97S
FITZGERALD     FAIR      71  69  92 CALM      30.00S
CORDELE        FAIR      70  68  93 CALM      29.99S
AMERICUS       FAIR      68  68 100 CALM      30.00S FOG
$$

!GMZ750-755-770-775-191100
...Coastal and Buoy Obs...

STATION/POSITION TIME  TEMP    WIND        PRES    VSBY  WAVE
                       AIR SEA DIR/SP/G                  HT/PER
                 (UTC) (F)     (DEG/KT/KT) (MB)    (MI)  (FT/S)
KEATON BEACH     1000   73      50/  3/  4 1013.4R
CEDAR KEY        0957   78     120/  7/  8 1013.7R
C TOWER          1000   82      40/  7/  8 1012.7R
APALACHICOLA BUO 1000   78 84   50/ 19/ 23 1011.8F         1
PANAMA CITY BUOY 0950   82 85   60/ 10/ 12 1011.7S         1
MOBILE BUOY      0944   76 84   60/ 14/ 17 1013.3R         2/ 4
ORANGE BCH AL BU 1000   79 85   10/ 10/ 14 1012.7R         1/ 2
$$



USA.gov is the U.S. government's official web portal to all federal, state and local government web resources and services.